Vorticity
6 6 6 5 5 5 5 5 5 5 6 6 6 6 6 6 6 6 7 7 7 7 7 7 7 7 7 6 6 6 6 5 5 5 5 5 5 5 5 5 5 6 6 6 6 7 7 6 6 6 7 6 6 6 6 6 6 6 6 7 7 7 6 6 6 6 6 6 6 6 6 7 7 7 7 7 7 7 7 7 7 7 7 7 7 7 7 7 7 7 8 7 6 5 4 3 2 1 1 1 1 1 2
5 5 5 5 5 5 5 5 5 5 6 6 6 6 6 6 7 7 7 7 7 7 7 7 7 7 7 7 7 7 6 6 6 6 6 5 5 5 5 5 5 5 5 5 6 6 6 6 6 6 6 6 6 6 6 5 5 5 6 6 6 6 6 5 6 6 6 6 6 6 6 6 6 6 7 7 7 7 7 6 7 7 7 7 7 7 7 7 7 7 8 8 7 6 5 4 3 2 1 1 1 1 1
5 5 5 5 6 6 6 6 6 6 6 6 6 6 7 7 7 7 7 7 7 7 7 7 7 7 7 7 7 7 7 7 7 7 6 6 6 6 5 5 5 5 5 5 5 5 6 6 6 6 6 6 6 6 6 5 5 5 5 5 5 5 5 5 5 6 6 6 6 5 5 6 6 6 6 6 6 6 6 6 6 6 7 7 7 7 7 7 7 7 7 8 8 7 6 5 4 3 2 2 2 2 2
5 5 5 6 6 6 6 6 6 6 6 6 6 6 7 7 7 7 7 7 7 7 7 7 7 7 7 7 7 7 7 7 7 7 7 7 7 6 6 6 6 6 6 6 6 6 6 6 6 6 6 6 6 6 6 6 6 6 6 6 6 6 6 6 6 6 6 5 5 5 5 5 5 6 6 6 6 6 6 6 6 7 6 7 7 7 7 7 7 7 7 7 8 7 7 6 5 5 4 3 3 3 3
5 5 5 6 6 6 6 6 6 6 6 6 7 7 7 7 7 7 7 7 7 7 7 7 7 7 7 7 7 7 7 7 7 7 7 7 7 7 6 6 6 6 6 6 6 6 6 6 6 7 7 7 7 7 7 7 7 7 7 6 6 6 6 6 6 6 6 6 6 6 6 6 6 6 6 6 6 6 6 6 7 7 7 7 7 7 7 7 7 7 7 7 7 8 7 7 6 6 5 4 4 4 4
5 5 6 6 6 6 6 6 6 6 7 7 7 7 7 7 7 7 7 7 8 8 8 8 8 7 7 7 7 7 7 7 7 7 7 7 7 7 7 6 6 6 6 6 6 6 6 6 6 6 6 6 6 6 6 6 6 6 6 6 6 6 6 6 6 6 6 6 6 6 6 7 7 7 7 6 6 6 7 7 7 7 7 7 7 7 7 7 7 7 7 7 8 8 8 7 7 7 6 6 5 5 5
6 6 6 6 6 6 6 6 6 7 7 7 7 7 7 7 7 7 7 7 8 8 8 8 8 8 8 7 7 7 7 7 7 7 7 7 7 7 7 7 6 6 6 6 5 5 5 5 5 5 6 5 5 5 5 5 5 6 6 6 6 6 6 6 6 6 6 6 6 6 7 7 7 7 7 7 7 7 7 7 7 7 7 8 8 8 8 8 8 8 8 8 8 8 8 8 8 8 7 7 7 7 8
6 6 6 6 6 6 6 6 7 7 7 7 7 7 7 7 7 7 7 7 8 8 8 8 8 8 8 8 8 8 7 7 7 7 7 7 8 7 7 7 7 7 6 6 6 6 6 5 5 5 5 5 5 5 5 5 5 5 5 5 5 5 5 5 5 5 6 6 6 6 6 7 7 7 7 7 7 7 7 7 7 7 7 8 8 8 8 8 8 8 8 8 8 8 8 9 9 9 9 9 10 10 11
6 6 6 6 6 6 6 6 7 7 7 7 7 7 7 7 7 7 7 8 8 8 8 8 9 9 9 9 8 8 8 7 7 7 7 7 7 8 8 8 8 7 7 7 7 7 6 6 6 6 5 5 5 5 5 5 5 5 5 5 5 5 5 5 5 5 5 6 6 6 6 6 6 6 6 6 6 7 7 7 7 7 7 7 7 8 8 8 8 9 9 9 9 9 10 10 10 11 11 12 12 13 14
6 6 6 6 6 6 6 7 7 7 7 7 7 7 7 7 7 7 7 8 8 8 8 8 8 9 9 9 9 8 8 8 7 7 7 7 7 7 8 8 8 8 8 8 7 7 7 7 7 6 6 6 6 5 5 5 5 5 5 5 6 6 6 6 6 6 6 7 7 7 7 7 6 6 6 6 6 6 6 7 6 6 6 6 6 7 7 7 7 8 8 9 9 9 10 10 10 11 11 12 12 12 12
6 6 6 6 6 6 6 7 7 7 7 7 7 7 7 7 7 7 8 8 8 8 8 8 8 8 8 8 8 8 8 8 7 7 7 7 7 7 7 7 7 7 8 8 8 7 7 7 7 7 7 7 7 6 6 6 6 6 6 7 7 7 7 8 8 8 8 8 8 8 8 8 8 7 7 7 7 7 7 7 7 6 6 6 6 6 6 6 6 6 6 7 7 7 8 8 8 8 8 8 7 7 6
6 6 6 6 6 6 7 7 7 7 7 7 7 7 7 7 7 7 8 8 8 8 8 8 8 8 8 8 8 8 8 7 7 7 7 7 7 7 7 7 7 7 7 7 7 7 7 7 7 7 7 7 7 7 7 7 7 7 7 7 7 7 8 8 8 8 8 8 8 8 8 8 8 8 8 8 8 7 7 7 7 7 7 7 6 6 6 6 6 6 5 5 5 5 5 5 5 4 4 3 3 2 2
6 6 6 6 6 7 7 7 7 7 7 7 7 7 7 7 7 8 8 8 8 8 8 8 7 7 7 7 7 7 7 7 7 7 7 7 7 7 7 6 6 6 6 6 7 7 7 7 7 7 7 7 7 7 7 7 7 7 7 7 7 7 7 7 8 8 8 8 8 8 8 8 8 8 8 8 8 8 7 7 7 7 7 7 7 7 7 7 7 6 6 6 5 5 5 4 4 4 3 3 3 3 3
6 6 6 6 7 7 7 7 7 7 7 7 7 7 7 7 7 7 8 8 8 8 7 7 7 7 7 7 7 7 7 7 7 7 7 7 7 7 7 6 6 6 6 6 6 6 6 6 6 7 7 7 7 7 7 7 7 7 7 7 7 7 7 7 7 7 7 7 7 7 7 7 7 7 7 7 8 8 8 7 7 7 7 7 7 7 7 7 7 7 7 7 7 6 6 6 6 5 6 6 6 6 6
6 6 6 6 6 7 7 7 7 7 7 7 7 7 7 7 7 8 8 7 7 7 7 7 7 7 7 7 6 7 7 7 7 7 7 7 7 7 7 6 6 6 6 6 6 6 6 6 6 6 6 6 6 6 6 7 7 7 7 7 7 7 7 7 7 6 6 6 6 6 7 7 7 7 7 7 7 7 7 7 7 7 7 7 7 7 7 7 7 7 7 7 7 7 7 7 7 7 8 8 8 8 9
6 6 6 6 6 6 6 6 7 7 7 7 7 7 7 7 8 8 8 7 7 7 7 7 7 6 6 6 6 6 6 7 7 7 7 7 7 7 7 6 6 6 6 6 6 5 6 6 6 6 6 6 6 6 6 6 6 7 7 7 7 7 7 7 6 6 6 6 6 6 6 6 6 6 7 7 7 7 7 7 7 7 7 7 7 7 7 7 7 7 6 6 7 7 7 7 8 8 8 9 9 10 10
6 6 6 6 6 6 6 6 6 6 6 7 7 7 7 8 8 8 8 7 7 7 7 6 6 6 6 6 6 6 6 7 7 7 7 7 7 7 7 7 6 6 6 6 5 5 5 5 5 5 6 6 6 6 6 6 6 6 7 7 7 7 7 7 7 6 6 6 6 6 6 6 6 6 6 6 6 6 6 6 6 6 6 6 6 6 6 6 6 6 6 6 7 7 7 8 8 8 9 9 9 10 10
7 7 7 7 7 6 6 6 6 6 6 6 7 7 7 7 8 8 8 7 7 7 6 6 6 6 6 6 6 6 7 7 7 7 7 7 7 7 7 7 7 6 6 6 6 6 5 5 5 6 6 6 6 6 6 6 6 6 6 6 7 7 7 7 6 6 6 6 6 6 7 7 7 6 6 6 6 6 6 6 6 6 6 6 6 6 7 7 7 7 7 7 7 8 8 8 8 9 9 9 9 9 10
7 7 7 7 7 7 6 6 6 6 6 6 7 7 7 7 7 7 7 7 7 6 6 6 6 6 6 6 6 7 7 7 7 7 7 7 7 7 7 7 7 6 6 6 6 6 6 6 6 6 6 6 6 6 6 6 6 6 6 6 6 7 7 6 6 6 6 6 6 6 7 7 7 7 7 7 7 7 7 7 7 7 7 7 8 8 8 8 8 9 9 9 9 9 9 9 9 9 9 9 9 9 9
8 8 7 7 7 7 7 6 6 6 6 6 6 7 7 7 7 7 7 7 7 6 6 6 6 6 6 7 7 7 7 7 7 7 7 7 7 7 7 7 7 6 6 6 6 6 6 6 6 6 6 6 6 7 7 7 7 7 6 6 6 6 7 7 7 6 6 6 6 7 7 7 7 7 7 7 7 7 8 8 8 8 9 9 9 10 10 10 11 11 11 11 11 11 11 10 10 10 9 9 8 8 8
8 8 8 8 7 7 7 7 6 6 6 6 6 6 7 7 7 7 7 7 6 6 6 6 6 6 6 7 7 7 7 7 7 7 7 7 7 7 7 7 6 6 6 6 6 6 6 6 6 6 6 7 7 7 7 7 7 7 7 6 6 6 7 7 7 7 7 7 7 7 7 7 7 8 8 8 8 9 9 9 10 10 10 11 11 11 12 12 12 12 12 12 12 12 11 11 11 10 10 9 9 8 8
8 8 8 8 8 7 7 7 6 6 6 6 6 6 7 7 7 7 7 6 6 6 6 6 6 6 6 7 7 7 7 8 8 7 7 7 7 7 7 7 7 6 6 6 6 7 7 7 7 7 7 7 7 7 7 7 7 7 7 7 7 7 7 7 7 8 8 8 8 8 8 8 8 8 8 9 9 10 10 10 11 11 11 11 11 12 12 11 11 11 11 11 11 11 11 11 11 11 11 10 10 10 9
8 8 9 8 8 7 7 7 6 6 6 6 6 6 6 7 7 7 6 6 6 6 6 6 6 6 6 7 7 7 8 8 8 7 7 7 7 7 7 7 7 7 7 7 7 7 7 7 7 7 7 7 7 7 7 7 7 7 7 7 7 7 7 7 8 8 8 8 8 8 8 8 8 9 9 9 10 10 11 11 11 11 11 11 10 10 10 10 9 9 9 9 10 10 10 11 11 12 12 12 12 12 11
8 8 9 9 8 8 7 7 7 7 7 7 6 6 6 6 6 6 6 6 6 6 6 6 6 6 6 7 7 8 8 8 8 7 7 7 7 7 7 7 7 7 7 7 7 7 7 7 7 7 7 7 7 7 7 7 7 7 7 7 8 8 8 8 8 8 8 8 8 8 8 8 9 9 9 10 10 10 10 10 10 10 9 9 8 8 7 7 7 7 8 8 9 9 10 11 12 12 13 14 14 14 14
8 8 8 9 8 8 7 7 7 7 7 7 7 6 6 6 6 6 6 6 6 6 5 6 6 6 6 7 7 8 8 8 8 8 7 7 7 7 7 7 7 7 7 7 7 7 7 7 7 7 7 7 7 7 7 7 7 7 7 7 8 8 8 7 8 8 8 8 8 8 8 8 9 9 9 10 10 10 9 9 8 8 7 7 6 6 6 6 6 6 7 7 8 9 9 10 11 12 13 14 14 15 15
7 8 8 8 8 8 8 7 7 7 7 7 7 6 6 6 6 6 6 5 5 5 5 5 6 6 6 7 7 7 8 8 8 8 7 7 7 7 7 7 7 7 7 7 7 7 7 7 7 7 7 7 7 7 7 7 7 7 7 7 7 7 7 7 7 7 8 8 8 8 8 8 9 9 9 9 9 8 8 7 6 5 5 5 5 5 5 5 5 6 6 7 7 7 8 9 9 10 11 12 13 14 15
7 7 8 8 8 8 9 8 7 7 7 7 7 7 6 6 6 6 6 5 5 5 5 5 6 6 6 6 7 7 8 8 8 8 8 7 7 7 7 7 7 7 7 7 7 7 7 7 7 7 7 7 7 7 7 7 7 7 7 7 7 7 7 7 7 7 7 8 8 8 8 8 8 8 8 7 7 6 6 5 4 4 3 3 4 4 4 4 5 5 5 6 6 6 6 7 7 8 9 10 11 12 13
7 7 7 7 7 8 8 8 8 7 6 7 7 7 6 6 6 6 6 5 5 5 5 5 5 6 6 6 7 7 8 8 8 8 8 7 7 7 7 7 7 7 7 7 7 7 7 7 7 7 7 7 7 7 7 7 7 7 7 7 7 7 7 7 7 7 7 8 8 8 8 7 7 7 7 6 5 5 4 4 3 3 3 3 3 3 3 4 4 4 5 5 5 5 6 6 6 6 7 8 8 9 10
6 6 7 6 7 7 7 8 8 7 6 6 6 7 7 6 6 5 6 5 5 5 5 5 5 5 6 6 6 7 8 8 8 8 8 7 7 7 7 7 7 7 7 7 7 7 7 7 7 7 7 7 7 7 7 7 7 7 7 7 7 7 7 7 7 7 7 7 7 7 7 7 6 6 5 5 4 4 3 3 3 3 3 3 3 3 3 4 4 4 4 5 5 5 5 5 5 6 6 6 7 8 8
6 6 7 6 6 6 6 7 7 8 7 7 7 7 7 6 6 6 5 5 5 5 5 5 5 5 5 6 6 7 7 8 8 8 8 8 7 7 7 7 7 7 7 7 7 7 7 7 7 7 8 7 7 7 7 7 7 6 6 6 6 6 7 7 7 7 7 7 6 6 6 6 5 5 4 4 3 3 3 3 3 3 3 3 3 3 3 4 4 4 4 5 5 5 5 5 5 5 6 6 6 7 7
6 6 7 7 6 6 6 6 7 7 7 7 7 7 7 7 7 6 5 5 5 5 5 5 5 5 5 5 5 6 7 7 8 8 8 8 7 7 7 7 7 7 7 7 7 7 7 7 7 7 7 7 7 7 7 7 6 6 6 6 6 6 6 6 6 6 6 6 6 6 5 5 4 4 4 3 3 3 3 3 3 3 3 3 3 3 4 4 4 4 4 5 5 5 5 5 5 5 5 6 6 6 7
6 6 7 7 7 6 6 6 6 6 6 6 6 7 7 7 7 6 6 6 5 5 5 5 5 5 5 5 5 6 6 7 7 8 8 8 7 7 7 7 7 7 7 7 7 7 7 7 7 7 7 7 7 7 6 6 6 6 6 6 6 6 6 6 6 5 5 5 5 5 5 4 4 4 4 3 3 3 3 3 3 3 3 3 3 3 4 4 4 4 4 4 4 5 5 5 5 5 5 5 6 6 6
6 6 6 7 7 7 7 7 6 6 6 6 6 7 7 7 7 6 6 6 5 5 5 5 5 5 6 6 5 6 6 6 7 8 8 8 7 7 7 7 7 7 7 7 7 7 7 7 7 7 7 7 7 7 6 6 6 6 6 6 5 5 5 5 5 5 5 5 5 5 5 4 4 4 4 3 3 3 3 3 3 3 3 3 3 3 3 4 4 4 4 4 4 4 4 5 5 5 5 5 5 6 6
6 6 6 6 7 7 7 7 6 6 6 5 6 6 7 8 7 6 6 5 5 5 5 5 5 6 6 6 6 6 6 6 6 7 8 8 7 7 6 6 7 7 7 7 7 7 7 7 7 7 7 7 7 6 6 6 6 5 5 5 5 5 5 5 5 5 5 5 5 5 4 4 4 4 4 4 4 4 4 4 4 4 4 3 3 3 3 3 4 4 4 4 4 4 4 4 4 5 5 5 5 5 6
6 6 6 6 6 6 7 7 7 6 6 6 5 6 7 8 8 7 6 5 5 5 5 5 5 6 6 6 6 6 6 6 6 6 7 8 7 7 6 6 7 7 7 7 7 7 7 7 7 7 7 6 6 6 6 6 5 5 5 5 5 5 5 5 5 4 4 4 4 4 4 4 4 4 4 4 4 4 4 4 4 4 4 3 3 3 3 3 3 4 4 4 4 4 4 4 4 4 4 5 5 5 5
6 6 6 6 6 6 6 7 7 6 6 6 6 6 7 7 7 7 6 5 5 5 5 5 5 6 6 6 6 6 6 6 6 6 6 7 7 7 7 6 6 7 7 7 7 7 7 7 7 7 7 6 6 6 6 5 5 5 5 5 5 4 4 4 4 4 4 4 4 4 4 4 4 4 4 4 4 4 4 4 4 4 4 4 3 3 3 4 4 4 4 4 4 4 4 4 4 4 4 4 4 5 5
6 6 6 6 6 6 6 6 6 6 7 6 6 6 6 6 7 7 7 6 5 5 5 5 5 5 6 6 6 6 6 6 6 6 5 6 6 7 7 7 7 7 7 7 7 7 7 7 7 7 7 6 6 5 5 5 5 5 5 5 4 4 4 4 4 4 4 4 4 4 4 4 4 4 4 4 4 4 4 4 4 4 4 4 4 4 4 4 4 4 4 4 4 4 4 4 4 4 4 4 4 4 5
6 6 6 6 6 6 6 6 6 7 7 7 6 6 6 6 6 6 7 6 6 5 4 4 5 5 6 6 6 6 6 6 6 6 5 5 6 6 7 7 7 7 7 7 7 7 7 7 7 7 7 6 6 5 5 5 5 5 5 4 4 4 4 4 4 4 3 3 3 3 3 3 3 3 3 3 3 3 3 3 3 4 4 4 4 4 4 4 4 4 4 4 4 4 5 5 5 5 5 4 4 4 5
7 7 7 7 6 6 6 6 7 7 7 7 7 6 6 6 6 6 7 7 6 5 4 4 5 5 6 6 6 6 6 6 6 6 6 6 6 6 6 6 6 7 7 7 7 7 7 7 7 7 7 7 6 5 5 5 5 5 4 4 4 3 3 3 3 3 3 3 3 3 3 3 3 3 3 3 3 3 3 3 4 4 4 4 4 5 5 5 5 5 4 4 4 5 5 5 5 5 5 5 5 5 5
7 7 7 7 7 7 7 7 7 7 7 7 7 7 6 6 6 6 7 7 7 6 5 5 5 6 6 5 5 5 5 6 6 6 6 6 6 6 6 6 6 6 7 7 7 7 7 7 7 7 7 7 6 6 5 5 4 4 4 4 3 3 3 3 3 3 3 3 3 3 3 3 3 3 3 3 3 3 4 4 4 4 4 5 5 5 5 5 5 5 5 5 5 5 5 5 5 5 5 5 5 5 5
8 8 8 8 8 7 7 7 7 7 7 8 8 7 7 7 7 7 7 7 8 7 6 5 5 6 6 5 5 5 5 5 6 6 6 6 6 6 6 6 6 6 7 7 7 7 7 7 7 7 7 6 6 6 6 5 4 4 4 4 3 3 3 3 2 2 2 2 2 3 3 3 3 3 3 3 4 4 4 4 4 4 5 5 5 5 5 5 5 5 5 5 5 5 5 5 5 5 5 5 5 5 5
8 9 9 8 8 8 8 8 8 8 8 8 8 8 8 7 7 7 8 8 8 8 7 6 5 5 5 5 5 5 5 5 5 6 6 6 6 6 6 6 6 6 6 6 7 7 7 7 6 6 6 6 6 6 6 5 5 4 4 3 3 3 3 3 3 2 2 2 2 3 3 3 3 3 4 4 4 4 4 4 4 5 5 5 5 5 5 5 5 5 5 5 5 5 5 5 6 6 6 6 5 5 5
9 9 9 9 9 9 9 9 9 9 9 8 8 8 8 8 8 8 8 8 8 9 8 7 6 5 5 5 5 5 4 5 5 6 6 6 6 6 6 6 6 6 6 6 6 7 7 6 6 6 6 6 6 6 6 5 5 4 4 3 3 3 3 3 3 3 3 3 3 3 3 3 3 4 4 4 4 4 4 4 5 5 5 5 5 5 5 5 5 5 5 5 5 5 5 6 6 6 6 6 6 6 5
9 9 10 10 10 10 10 9 9 9 9 9 8 8 8 8 8 8 8 8 8 9 9 8 7 6 5 5 5 5 4 4 5 5 6 6 6 6 6 6 6 6 6 6 6 7 7 6 6 6 6 6 6 6 6 6 5 4 4 3 3 3 3 2 2 2 3 3 3 3 3 3 4 4 4 4 4 4 4 5 5 5 5 5 5 5 5 5 5 5 5 5 5 5 5 6 6 6 6 6 6 6 6
9 9 9 9 9 9 9 9 9 9 9 9 8 8 8 8 7 7 7 7 8 8 9 9 8 7 6 6 5 5 4 4 4 5 5 5 5 5 6 6 6 6 6 6 6 6 6 6 6 6 6 6 6 6 6 6 5 4 4 4 3 3 3 3 2 2 3 3 3 3 3 4 4 4 4 4 4 4 4 5 5 5 6 6 5 5 5 5 5 5 5 5 5 5 6 6 6 6 6 6 6 6 6
8 8 8 8 8 8 8 8 8 8 8 8 8 8 8 8 8 7 7 7 7 8 8 8 8 8 7 7 6 5 5 4 4 4 5 5 5 5 5 6 6 6 6 6 6 6 6 6 6 6 6 6 6 6 6 6 5 5 5 4 4 3 3 3 3 3 3 3 3 4 4 4 4 4 4 4 4 4 4 5 5 6 6 6 5 5 5 5 5 5 5 5 5 5 6 6 6 7 7 7 6 6 6
7 7 7 7 7 7 7 7 7 7 7 7 8 8 8 8 8 8 8 8 8 8 8 8 8 8 8 8 7 6 6 5 5 5 5 5 5 5 5 5 6 6 6 6 6 6 6 6 6 6 6 6 6 6 6 6 6 5 5 4 4 4 4 4 3 3 3 3 3 4 4 4 5 5 5 4 4 4 4 5 5 6 6 6 5 5 5 5 4 4 5 5 5 5 6 6 7 7 7 7 7 6 6
6 6 6 5 5 5 5 5 5 6 6 7 7 7 8 8 8 8 8 8 8 8 8 8 8 8 8 8 8 8 7 6 6 5 5 5 6 6 5 5 6 6 6 6 6 6 6 6 6 6 6 6 6 6 6 6 6 6 5 5 5 5 4 4 4 4 4 4 4 4 4 5 5 5 5 5 5 4 5 5 6 6 6 6 5 5 5 4 4 4 4 4 5 5 6 6 7 7 7 6 6 6 6
5 5 5 5 5 4 4 4 5 5 6 6 7 7 7 7 7 8 8 8 9 9 9 9 9 8 8 8 8 8 8 8 7 7 6 6 6 7 7 6 6 6 6 6 6 7 6 6 6 6 6 6 6 6 6 6 6 6 6 5 5 5 5 5 4 4 4 4 4 5 5 5 5 5 5 5 5 5 5 5 6 6 6 6 5 5 5 4 4 4 4 4 5 6 6 7 7 6 6 6 6 6 6
5 5 5 5 5 5 5 4 5 5 6 6 7 7 7 7 7 7 7 7 8 8 8 8 9 9 9 8 7 7 8 8 8 8 8 8 7 6 6 7 7 6 6 6 6 7 7 6 6 6 6 6 6 6 6 6 6 6 6 6 5 5 5 5 5 5 5 5 5 5 5 5 6 6 5 5 5 5 5 6 6 7 7 6 5 5 5 4 4 4 4 4 5 6 6 7 7 6 6 5 5 5 5
5 5 5 5 5 6 6 5 5 6 6 7 7 7 7 6 6 6 6 7 7 8 8 8 8 8 9 8 7 7 7 8 8 9 9 8 7 6 6 6 6 6 7 7 7 7 6 6 6 6 6 6 6 6 6 5 5 6 6 6 6 5 5 5 5 5 5 5 5 5 6 6 6 6 6 5 5 5 5 6 6 7 7 6 6 5 5 4 3 3 4 4 5 6 7 7 6 6 5 5 5 5 5
5 5 5 5 6 6 6 6 6 6 6 6 7 7 7 7 6 6 6 6 6 7 8 8 7 7 8 8 8 7 7 7 8 9 9 7 7 7 7 6 6 6 6 6 7 7 7 7 6 6 7 7 6 6 6 5 5 5 6 6 6 6 6 6 6 6 6 6 6 6 6 6 6 6 6 5 5 5 5 6 7 7 7 6 5 5 4 4 3 3 4 4 5 6 7 7 6 6 5 5 4 4 4
5 5 5 6 6 6 6 6 6 6 6 6 6 6 6 6 6 6 5 6 6 6 6 7 7 7 7 7 7 7 6 6 7 7 8 7 7 7 8 7 7 6 6 6 6 6 7 7 7 7 6 7 7 6 6 5 5 5 6 6 7 7 6 6 6 6 7 7 6 6 6 6 6 6 6 6 5 5 6 6 7 7 7 6 5 5 4 3 3 3 4 4 5 6 7 7 6 6 5 5 4 4 4
5 5 5 5 5 5 5 5 5 5 5 5 5 5 5 5 5 5 5 5 5 5 5 5 6 6 7 7 7 7 6 6 6 6 6 7 7 7 6 5 6 7 7 7 7 7 8 6 6 7 7 7 7 6 6 5 5 5 6 7 7 7 7 7 6 6 7 7 7 6 6 6 6 6 6 6 6 6 6 6 7 7 7 6 5 5 4 3 3 3 4 4 5 6 7 7 6 6 5 5 4 4 4
6 5 5 5 5 5 5 5 5 4 4 4 4 4 4 4 4 5 5 5 5 5 5 5 5 5 5 6 6 6 7 6 6 6 6 6 6 6 7 7 7 6 6 6 6 7 5 6 6 6 7 7 7 7 6 5 5 5 6 7 8 8 8 7 6 6 6 7 7 6 6 6 6 6 7 6 6 6 6 6 7 7 6 6 5 4 4 3 3 3 3 4 5 6 7 6 6 5 5 4 4 4 4
6 6 6 5 5 5 5 5 4 4 4 4 4 4 4 4 4 4 4 4 4 4 4 5 4 4 4 5 6 6 6 6 6 6 6 6 5 5 6 6 6 6 6 6 5 4 5 7 7 6 5 7 7 8 7 7 6 6 6 7 8 9 9 8 7 6 6 6 6 6 6 6 6 7 6 6 6 6 6 6 6 7 6 5 5 4 4 3 3 3 3 4 5 5 6 6 5 5 5 4 4 4 4
6 6 6 6 5 5 5 5 5 4 4 4 4 4 4 4 4 4 4 4 4 4 4 5 5 5 4 4 5 6 6 6 6 6 6 6 6 6 5 5 5 5 6 7 7 7 7 7 7 7 8 7 7 8 9 8 7 7 7 8 8 9 9 9 8 7 7 6 6 6 6 6 7 7 6 6 6 6 6 6 6 6 6 5 5 4 4 3 3 3 3 4 4 5 5 5 5 5 4 4 4 4 4
6 6 6 6 6 5 5 5 5 5 5 4 4 4 4 4 4 4 4 4 5 5 5 4 5 5 5 5 5 6 6 7 7 6 6 6 6 6 5 5 4 4 4 5 6 7 10 7 6 7 10 8 6 6 8 9 8 8 7 8 8 9 9 9 9 9 8 7 7 6 6 6 6 6 6 6 6 6 6 6 6 6 6 5 5 4 4 3 3 3 3 4 4 4 5 5 4 4 4 4 3 3 4
6 6 6 6 6 6 5 5 5 5 5 5 5 5 5 5 5 5 5 5 6 6 6 5 5 6 7 7 7 8 7 8 8 7 7 6 6 6 6 6 5 5 5 5 5 6 7 7 7 7 8 9 8 6 5 6 8 9 9 9 9 8 9 9 9 9 9 8 8 7 7 6 6 6 6 6 6 6 5 5 5 5 5 5 5 4 4 3 3 3 3 3 4 4 4 4 4 3 3 3 3 3 3
6 6 6 7 7 7 7 7 7 7 7 6 6 6 6 7 7 6 6 6 6 6 6 6 7 7 6 7 7 6 7 9 9 8 8 8 7 7 6 7 7 7 7 7 6 6 5 6 7 7 6 7 9 10 7 5 5 7 9 9 9 8 8 8 9 9 9 9 8 8 7 7 7 6 7 6 6 5 5 5 5 5 5 5 5 5 4 3 3 2 3 3 4 4 4 4 3 3 3 3 3 3 3
7 8 8 9 10 10 10 10 9 9 10 10 9 9 9 9 9 9 8 8 7 7 6 7 7 7 6 7 6 5 6 7 8 7 7 7 7 7 6 8 9 9 10 9 9 8 7 7 6 5 6 6 7 8 9 8 6 6 6 7 7 8 7 8 8 9 9 9 9 8 8 7 7 7 6 6 5 5 5 5 5 5 6 6 6 5 4 3 2 2 2 3 3 4 4 3 3 2 2 3 3 3 3
Height
5886 5886 5886 5886 5886 5885 5885 5885 5885 5885 5885 5885 5885 5884 5884 5884 5884 5884 5884 5884 5883 5883 5883 5883 5883 5883 5882 5882 5882 5882 5881 5881 5880 5880 5880 5880 5879 5879 5879 5878 5878 5878 5877 5877 5877 5877 5876 5876 5876 5876 5876 5876 5875 5875 5875 5875 5875 5875 5875 5875 5875 5875 5874 5874 5874 5874 5873 5873 5873 5873 5873 5872 5872 5872 5871 5871 5871 5870 5870 5870 5870 5870 5869 5870 5870 5869 5868 5868 5868 5869 5869 5869 5869 5869 5868 5868 5867 5866 5866 5866 5866 5866 5865
5885 5885 5885 5885 5885 5885 5885 5885 5884 5884 5884 5884 5884 5883 5883 5883 5883 5883 5883 5882 5882 5882 5882 5882 5882 5881 5881 5881 5881 5880 5880 5880 5880 5879 5879 5879 5878 5878 5878 5877 5877 5877 5876 5876 5876 5876 5876 5875 5875 5875 5875 5875 5875 5875 5874 5874 5874 5874 5874 5874 5874 5873 5873 5873 5873 5873 5872 5872 5872 5871 5871 5871 5871 5871 5870 5870 5870 5870 5869 5869 5869 5869 5868 5868 5869 5868 5867 5867 5867 5867 5867 5867 5867 5867 5866 5866 5866 5865 5865 5865 5865 5865 5864
5885 5885 5885 5884 5884 5884 5884 5884 5884 5883 5883 5883 5883 5883 5882 5882 5882 5882 5882 5881 5881 5881 5881 5881 5880 5880 5880 5880 5880 5880 5879 5879 5879 5878 5878 5878 5877 5877 5877 5876 5876 5876 5875 5875 5875 5875 5875 5875 5874 5874 5874 5874 5874 5874 5873 5873 5873 5873 5873 5872 5872 5872 5872 5872 5871 5871 5871 5871 5870 5870 5870 5870 5870 5870 5870 5869 5869 5868 5868 5868 5868 5868 5867 5867 5867 5867 5866 5866 5866 5866 5866 5866 5866 5865 5865 5865 5864 5864 5864 5864 5864 5863 5863
5884 5884 5884 5884 5883 5883 5883 5883 5883 5882 5882 5882 5882 5882 5881 5881 5881 5881 5881 5880 5880 5880 5880 5880 5879 5879 5879 5879 5878 5878 5878 5878 5877 5877 5877 5876 5876 5876 5875 5875 5875 5875 5875 5874 5874 5874 5874 5873 5873 5873 5873 5873 5873 5872 5872 5872 5872 5871 5871 5871 5871 5871 5870 5870 5870 5870 5870 5870 5870 5869 5869 5869 5869 5869 5868 5868 5868 5867 5867 5867 5866 5866 5866 5866 5866 5866 5865 5865 5865 5864 5865 5865 5865 5865 5864 5864 5863 5863 5862 5862 5862 5862 5862
5883 5883 5883 5882 5882 5882 5882 5882 5882 5881 5881 5881 5881 5881 5880 5880 5880 5880 5880 5880 5880 5879 5879 5879 5878 5878 5878 5878 5877 5877 5877 5876 5876 5876 5875 5875 5875 5875 5875 5874 5874 5874 5873 5873 5873 5873 5872 5872 5872 5872 5872 5871 5871 5871 5871 5870 5870 5870 5870 5870 5870 5869 5869 5869 5869 5869 5869 5868 5868 5868 5868 5868 5868 5867 5867 5867 5866 5866 5866 5865 5865 5865 5865 5865 5865 5865 5865 5864 5863 5863 5863 5863 5863 5863 5863 5863 5862 5861 5861 5861 5861 5860 5860
5882 5882 5881 5881 5881 5881 5881 5881 5881 5880 5880 5880 5880 5880 5880 5880 5879 5879 5879 5879 5879 5878 5878 5878 5878 5877 5877 5877 5876 5876 5876 5875 5875 5875 5875 5874 5874 5874 5873 5873 5873 5872 5872 5872 5872 5871 5871 5871 5871 5870 5870 5870 5870 5870 5870 5869 5869 5869 5869 5868 5868 5868 5868 5868 5868 5867 5867 5867 5867 5867 5867 5866 5866 5866 5866 5865 5865 5865 5865 5865 5865 5864 5863 5863 5863 5863 5863 5863 5862 5862 5861 5861 5861 5861 5861 5861 5861 5860 5860 5860 5859 5859 5859
5881 5880 5880 5880 5880 5880 5880 5880 5880 5879 5879 5879 5879 5879 5879 5879 5878 5878 5878 5878 5878 5877 5877 5877 5877 5876 5876 5876 5875 5875 5875 5875 5874 5874 5874 5873 5873 5873 5872 5872 5872 5872 5871 5871 5871 5870 5870 5870 5870 5870 5870 5869 5869 5869 5869 5868 5868 5868 5867 5867 5867 5867 5867 5867 5866 5866 5866 5866 5866 5865 5865 5865 5865 5865 5865 5865 5864 5864 5864 5864 5864 5863 5862 5862 5862 5862 5862 5861 5861 5861 5860 5860 5860 5860 5860 5860 5859 5859 5859 5858 5858 5857 5857
5880 5880 5879 5879 5879 5879 5879 5879 5878 5878 5878 5878 5878 5878 5878 5877 5877 5877 5877 5877 5877 5876 5876 5876 5876 5875 5875 5875 5875 5874 5874 5874 5873 5873 5873 5872 5872 5872 5871 5871 5871 5871 5870 5870 5870 5870 5870 5869 5869 5869 5869 5868 5868 5868 5868 5867 5867 5867 5866 5866 5866 5866 5866 5866 5865 5865 5865 5865 5865 5865 5865 5865 5864 5864 5863 5863 5863 5863 5862 5863 5862 5862 5861 5861 5861 5860 5860 5860 5860 5860 5859 5859 5858 5858 5858 5858 5858 5857 5857 5857 5856 5856 5855
5879 5879 5878 5878 5878 5878 5878 5877 5877 5877 5877 5877 5877 5876 5876 5876 5876 5876 5876 5876 5875 5875 5875 5875 5875 5875 5874 5874 5874 5873 5873 5873 5872 5872 5872 5871 5871 5871 5870 5870 5870 5870 5870 5869 5869 5869 5869 5868 5868 5868 5868 5867 5867 5867 5867 5866 5866 5866 5866 5865 5865 5865 5865 5865 5865 5864 5864 5863 5863 5863 5863 5863 5863 5863 5863 5862 5862 5861 5861 5861 5860 5860 5860 5860 5860 5859 5859 5859 5859 5858 5858 5857 5857 5857 5856 5856 5856 5856 5855 5855 5855 5855 5854
5878 5878 5877 5877 5877 5877 5877 5877 5876 5876 5876 5875 5875 5875 5875 5875 5875 5875 5875 5875 5875 5874 5874 5874 5874 5873 5873 5873 5872 5872 5872 5871 5871 5871 5870 5870 5870 5870 5870 5869 5869 5869 5868 5868 5868 5868 5867 5867 5867 5867 5866 5866 5866 5866 5866 5865 5865 5865 5865 5865 5864 5864 5864 5864 5864 5863 5863 5863 5862 5862 5862 5862 5861 5861 5862 5861 5861 5860 5860 5859 5859 5859 5859 5859 5858 5858 5858 5857 5857 5857 5856 5856 5856 5855 5855 5855 5855 5854 5854 5854 5854 5853 5853
5877 5876 5876 5876 5876 5876 5875 5875 5875 5875 5875 5875 5874 5874 5874 5874 5874 5874 5873 5873 5873 5873 5873 5872 5872 5872 5872 5871 5871 5871 5870 5870 5870 5870 5869 5869 5869 5869 5868 5868 5868 5867 5867 5867 5867 5866 5866 5866 5866 5865 5865 5865 5865 5865 5865 5864 5864 5864 5864 5863 5863 5863 5863 5862 5862 5862 5862 5861 5861 5861 5860 5860 5860 5860 5860 5860 5860 5859 5859 5858 5858 5858 5857 5857 5857 5857 5856 5856 5856 5855 5855 5855 5855 5854 5854 5853 5853 5853 5853 5852 5852 5852 5851
5876 5875 5875 5875 5875 5875 5875 5875 5874 5874 5874 5874 5874 5873 5873 5873 5872 5872 5872 5872 5872 5872 5871 5871 5871 5871 5870 5870 5870 5870 5869 5869 5869 5868 5868 5868 5868 5867 5867 5867 5866 5866 5866 5866 5865 5865 5865 5865 5865 5864 5864 5864 5864 5863 5863 5863 5863 5862 5862 5862 5862 5861 5861 5861 5861 5860 5860 5860 5860 5859 5859 5859 5859 5859 5858 5858 5858 5857 5857 5857 5856 5856 5856 5855 5855 5855 5855 5855 5854 5854 5854 5853 5853 5853 5852 5852 5851 5851 5851 5851 5850 5850 5850
5875 5875 5874 5874 5874 5874 5874 5873 5873 5873 5873 5873 5873 5872 5872 5872 5871 5871 5871 5871 5870 5870 5870 5870 5870 5869 5869 5869 5869 5868 5868 5868 5867 5867 5867 5866 5866 5866 5866 5865 5865 5865 5865 5864 5864 5864 5864 5863 5863 5863 5863 5862 5862 5862 5862 5861 5861 5861 5861 5860 5860 5860 5860 5860 5859 5859 5859 5858 5858 5858 5858 5857 5857 5857 5856 5856 5856 5856 5856 5855 5855 5855 5855 5854 5854 5854 5853 5853 5853 5853 5852 5852 5852 5851 5851 5850 5850 5850 5849 5849 5849 5848 5848
5874 5874 5873 5873 5873 5873 5872 5872 5872 5872 5872 5872 5871 5871 5871 5871 5870 5870 5870 5870 5869 5869 5869 5869 5868 5868 5868 5867 5867 5867 5867 5866 5866 5866 5865 5865 5865 5865 5865 5864 5864 5864 5863 5863 5863 5862 5862 5862 5862 5862 5861 5861 5861 5860 5860 5860 5860 5860 5859 5859 5859 5858 5858 5858 5858 5857 5857 5857 5856 5856 5856 5856 5855 5855 5855 5855 5855 5854 5854 5854 5854 5853 5853 5853 5852 5852 5852 5852 5851 5851 5851 5850 5850 5850 5849 5849 5848 5848 5848 5847 5847 5846 5846
5873 5873 5873 5872 5872 5872 5871 5871 5871 5871 5871 5871 5870 5870 5870 5870 5870 5869 5869 5869 5868 5868 5868 5867 5867 5867 5866 5866 5866 5865 5865 5865 5865 5865 5864 5864 5864 5863 5863 5863 5862 5862 5862 5861 5861 5861 5861 5861 5860 5860 5860 5860 5860 5859 5859 5859 5858 5858 5858 5858 5857 5857 5857 5857 5856 5856 5856 5855 5855 5855 5855 5855 5854 5854 5854 5853 5853 5853 5852 5852 5852 5852 5852 5851 5851 5851 5850 5850 5850 5850 5849 5849 5848 5848 5848 5847 5847 5846 5846 5845 5845 5845 5845
5872 5872 5871 5871 5871 5871 5870 5870 5870 5870 5870 5870 5869 5869 5869 5869 5869 5868 5868 5868 5867 5867 5867 5866 5866 5865 5865 5865 5865 5864 5864 5864 5863 5863 5863 5863 5862 5862 5862 5861 5861 5861 5860 5860 5860 5860 5860 5859 5859 5859 5859 5859 5858 5858 5858 5857 5857 5857 5856 5856 5856 5856 5855 5855 5855 5855 5854 5854 5854 5854 5853 5853 5853 5852 5852 5852 5851 5851 5851 5851 5850 5850 5850 5850 5849 5849 5849 5848 5848 5848 5847 5847 5847 5846 5846 5845 5845 5845 5844 5844 5844 5843 5843
5871 5870 5870 5870 5870 5870 5870 5869 5869 5869 5869 5868 5868 5868 5868 5868 5867 5867 5867 5866 5866 5866 5865 5865 5865 5865 5864 5864 5863 5863 5863 5863 5862 5862 5862 5861 5861 5861 5861 5860 5860 5860 5859 5859 5859 5858 5858 5858 5858 5858 5857 5857 5857 5857 5856 5856 5856 5855 5855 5855 5855 5855 5854 5854 5854 5853 5853 5853 5852 5852 5852 5852 5851 5851 5851 5850 5850 5850 5850 5849 5849 5849 5848 5848 5848 5847 5847 5847 5846 5846 5846 5845 5845 5845 5844 5844 5843 5843 5842 5842 5842 5841 5841
5870 5869 5869 5869 5869 5869 5869 5868 5868 5868 5867 5867 5867 5867 5866 5866 5866 5866 5866 5865 5865 5865 5864 5864 5864 5863 5863 5863 5862 5862 5862 5861 5861 5861 5861 5860 5860 5860 5860 5859 5859 5859 5858 5858 5857 5857 5857 5857 5857 5856 5856 5856 5856 5855 5855 5855 5855 5854 5854 5854 5853 5853 5853 5853 5852 5852 5852 5851 5851 5851 5850 5850 5850 5850 5850 5849 5849 5849 5848 5848 5847 5847 5847 5846 5846 5846 5845 5845 5845 5845 5844 5844 5843 5843 5842 5842 5842 5841 5841 5840 5840 5840 5839
5869 5868 5868 5868 5868 5867 5867 5867 5867 5866 5866 5866 5866 5865 5865 5865 5865 5865 5865 5864 5864 5864 5863 5863 5862 5862 5862 5861 5861 5861 5860 5860 5860 5860 5860 5859 5859 5859 5858 5858 5858 5857 5857 5857 5856 5856 5856 5855 5855 5855 5855 5855 5855 5854 5854 5854 5854 5853 5853 5852 5852 5852 5852 5851 5851 5851 5850 5850 5850 5850 5849 5849 5849 5849 5848 5848 5848 5847 5847 5846 5846 5846 5845 5845 5845 5845 5844 5844 5844 5843 5843 5842 5842 5841 5841 5840 5840 5840 5839 5839 5838 5838 5837
5868 5867 5867 5867 5866 5866 5866 5866 5865 5865 5865 5865 5865 5864 5864 5864 5864 5864 5863 5863 5863 5862 5862 5862 5861 5861 5860 5860 5860 5860 5859 5859 5859 5859 5858 5858 5858 5857 5857 5857 5856 5856 5856 5855 5855 5855 5855 5854 5854 5854 5854 5853 5853 5853 5853 5852 5852 5852 5851 5851 5850 5850 5850 5850 5850 5850 5849 5849 5848 5848 5848 5848 5847 5847 5847 5846 5846 5846 5845 5845 5845 5845 5844 5844 5844 5843 5843 5842 5842 5842 5841 5841 5840 5840 5840 5839 5839 5838 5838 5837 5837 5836 5836
5866 5866 5866 5865 5865 5865 5865 5865 5864 5864 5864 5864 5863 5863 5863 5863 5862 5862 5862 5862 5861 5861 5861 5860 5860 5860 5859 5859 5859 5858 5858 5858 5858 5857 5857 5857 5856 5856 5856 5855 5855 5855 5855 5854 5854 5854 5853 5853 5853 5853 5852 5852 5852 5851 5851 5851 5851 5850 5850 5850 5849 5849 5849 5849 5849 5848 5848 5847 5847 5847 5846 5846 5846 5846 5845 5845 5845 5845 5844 5844 5844 5843 5843 5843 5842 5842 5841 5841 5841 5840 5840 5840 5839 5839 5838 5838 5837 5837 5836 5835 5835 5835 5834
5865 5865 5865 5864 5864 5864 5863 5863 5863 5863 5862 5862 5862 5862 5862 5861 5861 5861 5861 5860 5860 5860 5860 5859 5859 5858 5858 5858 5857 5857 5857 5857 5856 5856 5856 5855 5855 5855 5855 5854 5854 5853 5853 5853 5852 5852 5852 5852 5852 5851 5851 5850 5850 5850 5850 5850 5849 5849 5849 5849 5848 5848 5847 5847 5847 5847 5846 5846 5846 5845 5845 5845 5845 5844 5844 5844 5844 5843 5843 5843 5842 5842 5842 5841 5841 5840 5840 5840 5840 5839 5839 5838 5838 5837 5837 5836 5836 5835 5835 5834 5834 5833 5833
5864 5863 5863 5863 5863 5862 5862 5861 5861 5861 5861 5861 5860 5860 5860 5860 5860 5860 5859 5859 5859 5859 5858 5858 5857 5857 5857 5856 5856 5856 5856 5855 5855 5855 5855 5854 5854 5854 5853 5853 5852 5852 5852 5851 5851 5851 5851 5850 5850 5850 5850 5849 5849 5849 5848 5848 5848 5848 5847 5847 5847 5846 5846 5846 5846 5845 5845 5845 5845 5844 5844 5844 5843 5843 5843 5843 5842 5842 5842 5841 5841 5841 5840 5840 5840 5839 5839 5839 5838 5838 5837 5837 5836 5836 5835 5835 5835 5834 5833 5833 5832 5832 5831
5862 5862 5862 5861 5861 5861 5861 5860 5860 5860 5859 5859 5859 5859 5859 5859 5859 5858 5858 5858 5857 5857 5857 5856 5856 5855 5855 5855 5855 5855 5855 5854 5854 5854 5853 5853 5852 5852 5852 5851 5851 5851 5850 5850 5850 5850 5849 5849 5849 5849 5848 5848 5848 5847 5847 5847 5846 5846 5846 5846 5845 5845 5845 5845 5845 5844 5844 5844 5843 5843 5843 5842 5842 5842 5841 5841 5841 5841 5840 5840 5840 5840 5839 5839 5839 5838 5838 5837 5837 5836 5836 5835 5835 5835 5834 5834 5833 5833 5832 5831 5831 5830 5830
5860 5860 5860 5860 5860 5860 5859 5859 5858 5858 5858 5857 5857 5857 5857 5857 5857 5857 5856 5856 5856 5855 5855 5855 5855 5854 5854 5854 5854 5853 5853 5853 5853 5852 5852 5851 5851 5851 5850 5850 5850 5849 5849 5849 5848 5848 5848 5848 5848 5847 5847 5846 5846 5846 5845 5845 5845 5845 5845 5844 5844 5844 5844 5843 5843 5843 5843 5842 5842 5842 5841 5841 5841 5840 5840 5840 5840 5840 5839 5839 5839 5838 5838 5838 5837 5837 5836 5836 5836 5835 5835 5834 5834 5833 5833 5832 5832 5831 5831 5830 5830 5829 5829
5859 5859 5859 5858 5858 5858 5858 5857 5857 5857 5856 5856 5856 5855 5855 5855 5855 5855 5855 5855 5854 5854 5854 5853 5853 5853 5852 5852 5852 5852 5852 5851 5851 5851 5850 5850 5850 5849 5849 5849 5848 5848 5848 5847 5847 5847 5846 5846 5846 5846 5845 5845 5845 5845 5844 5844 5844 5843 5843 5843 5843 5842 5842 5842 5842 5841 5841 5841 5840 5840 5840 5840 5840 5839 5839 5839 5839 5838 5838 5838 5838 5837 5837 5836 5836 5836 5835 5835 5835 5834 5834 5833 5833 5832 5831 5831 5830 5830 5830 5829 5829 5828 5827
5857 5857 5857 5857 5856 5856 5856 5856 5855 5855 5855 5854 5854 5854 5854 5854 5853 5853 5853 5853 5853 5852 5852 5852 5851 5851 5851 5850 5850 5850 5850 5850 5850 5849 5849 5848 5848 5848 5847 5847 5847 5846 5846 5846 5845 5845 5845 5845 5845 5845 5844 5844 5843 5843 5843 5842 5842 5842 5841 5841 5841 5841 5841 5840 5840 5840 5840 5840 5839 5839 5839 5838 5838 5838 5838 5838 5837 5837 5837 5837 5836 5836 5836 5835 5835 5835 5834 5834 5833 5833 5832 5832 5831 5831 5830 5830 5829 5829 5828 5828 5827 5827 5826
5855 5855 5855 5855 5855 5855 5854 5854 5854 5854 5853 5853 5852 5852 5852 5852 5852 5851 5851 5851 5851 5851 5850 5850 5850 5850 5849 5849 5849 5849 5848 5848 5848 5847 5847 5847 5847 5846 5846 5845 5845 5845 5845 5844 5844 5844 5844 5843 5843 5843 5843 5842 5842 5842 5841 5841 5841 5840 5840 5840 5840 5839 5839 5839 5839 5838 5838 5838 5838 5837 5837 5837 5837 5837 5836 5836 5836 5836 5835 5835 5835 5835 5834 5834 5834 5833 5833 5832 5832 5831 5831 5830 5830 5830 5829 5828 5828 5827 5827 5826 5826 5825 5825
5854 5854 5854 5853 5853 5853 5853 5852 5852 5852 5852 5851 5851 5850 5850 5850 5850 5850 5850 5849 5849 5849 5849 5849 5848 5848 5848 5847 5847 5847 5846 5846 5846 5846 5845 5845 5845 5845 5845 5844 5844 5843 5843 5843 5842 5842 5842 5842 5842 5841 5841 5840 5840 5840 5840 5840 5839 5839 5839 5838 5838 5838 5838 5837 5837 5837 5837 5836 5836 5836 5836 5836 5835 5835 5835 5835 5835 5835 5834 5834 5834 5833 5833 5833 5832 5832 5831 5831 5831 5830 5830 5829 5829 5828 5828 5827 5826 5826 5825 5825 5825 5824 5824
5852 5852 5852 5851 5851 5851 5851 5851 5850 5850 5850 5850 5849 5849 5849 5848 5848 5848 5847 5847 5847 5847 5847 5847 5846 5846 5846 5846 5845 5845 5845 5844 5844 5844 5844 5844 5844 5843 5843 5843 5842 5842 5841 5841 5841 5840 5840 5840 5840 5840 5840 5839 5839 5838 5838 5838 5838 5837 5837 5837 5837 5836 5836 5836 5835 5835 5835 5835 5835 5835 5835 5834 5834 5834 5834 5833 5833 5833 5833 5833 5832 5832 5831 5831 5831 5830 5830 5830 5829 5829 5828 5828 5827 5827 5826 5826 5825 5825 5824 5824 5823 5823 5822
5850 5850 5850 5850 5850 5850 5849 5849 5849 5849 5849 5849 5848 5847 5847 5846 5846 5846 5846 5845 5845 5845 5845 5845 5845 5845 5844 5844 5844 5844 5843 5842 5842 5842 5842 5842 5842 5842 5841 5841 5840 5840 5840 5840 5839 5839 5839 5839 5838 5838 5838 5838 5837 5837 5837 5836 5836 5836 5835 5835 5835 5835 5835 5834 5834 5834 5834 5833 5833 5833 5833 5833 5832 5832 5832 5832 5832 5832 5831 5831 5831 5830 5830 5830 5829 5829 5829 5828 5828 5827 5827 5826 5826 5825 5825 5824 5824 5823 5823 5822 5822 5821 5821
5848 5848 5848 5848 5847 5847 5847 5847 5847 5847 5847 5847 5846 5845 5845 5845 5845 5844 5844 5844 5843 5843 5843 5843 5843 5843 5842 5842 5842 5842 5841 5841 5840 5840 5840 5840 5840 5840 5840 5840 5839 5839 5838 5838 5837 5837 5837 5837 5837 5836 5836 5836 5835 5835 5835 5835 5835 5834 5834 5834 5833 5833 5833 5833 5832 5832 5832 5832 5831 5831 5831 5831 5831 5831 5830 5830 5830 5830 5830 5830 5829 5829 5829 5828 5828 5827 5827 5827 5826 5826 5825 5825 5825 5824 5823 5823 5822 5822 5821 5821 5820 5820 5820
5846 5846 5846 5846 5845 5845 5845 5845 5845 5845 5845 5845 5844 5844 5843 5843 5842 5842 5842 5842 5842 5841 5841 5841 5840 5840 5840 5840 5840 5840 5840 5839 5839 5838 5838 5838 5838 5838 5838 5838 5837 5837 5836 5836 5836 5835 5835 5835 5835 5835 5835 5835 5834 5834 5833 5833 5833 5833 5832 5832 5832 5831 5831 5831 5831 5830 5830 5830 5830 5830 5830 5829 5829 5829 5829 5829 5829 5828 5828 5828 5828 5827 5827 5827 5826 5826 5825 5825 5825 5824 5824 5824 5823 5822 5822 5821 5821 5820 5820 5820 5819 5819 5818
5844 5844 5844 5844 5843 5843 5843 5843 5843 5843 5843 5843 5842 5842 5841 5840 5840 5840 5840 5840 5840 5839 5839 5839 5839 5839 5839 5838 5838 5838 5838 5837 5837 5836 5836 5835 5835 5836 5836 5836 5836 5835 5835 5835 5834 5834 5834 5833 5833 5833 5833 5833 5832 5832 5831 5831 5831 5831 5830 5830 5830 5830 5829 5829 5829 5829 5829 5828 5828 5828 5828 5828 5827 5827 5827 5827 5827 5827 5826 5826 5826 5826 5825 5825 5825 5824 5824 5823 5823 5823 5822 5822 5821 5821 5820 5820 5820 5819 5818 5818 5817 5817 5817
5842 5842 5842 5841 5841 5841 5841 5841 5841 5840 5840 5840 5840 5840 5840 5839 5838 5838 5838 5838 5838 5837 5837 5837 5837 5836 5836 5836 5836 5836 5836 5835 5835 5835 5834 5834 5833 5833 5834 5834 5834 5834 5833 5833 5832 5832 5832 5831 5831 5831 5831 5831 5831 5830 5830 5829 5829 5829 5829 5828 5828 5828 5828 5827 5827 5827 5827 5826 5826 5826 5826 5826 5826 5825 5825 5825 5825 5825 5825 5824 5824 5824 5824 5823 5823 5822 5822 5822 5821 5821 5820 5820 5820 5819 5819 5818 5818 5817 5817 5816 5816 5815 5815
5840 5840 5840 5840 5839 5839 5839 5839 5839 5838 5838 5838 5838 5838 5838 5837 5837 5836 5836 5835 5835 5835 5835 5835 5835 5835 5834 5834 5834 5834 5834 5834 5833 5833 5832 5832 5831 5831 5831 5831 5832 5832 5831 5831 5830 5830 5830 5830 5830 5829 5829 5829 5829 5829 5828 5827 5827 5827 5827 5827 5826 5826 5826 5825 5825 5825 5825 5825 5825 5824 5824 5824 5824 5824 5823 5823 5823 5823 5823 5822 5822 5822 5822 5821 5821 5820 5820 5820 5820 5819 5819 5818 5818 5817 5817 5816 5816 5815 5815 5815 5814 5814 5813
5838 5838 5838 5837 5837 5837 5836 5836 5836 5836 5836 5836 5836 5836 5836 5835 5835 5834 5834 5833 5833 5833 5833 5833 5833 5832 5832 5832 5831 5831 5831 5831 5831 5830 5830 5830 5829 5829 5829 5829 5830 5830 5829 5829 5829 5828 5828 5828 5828 5827 5827 5827 5827 5827 5826 5826 5825 5825 5825 5825 5825 5824 5824 5824 5824 5823 5823 5823 5823 5822 5822 5822 5822 5822 5821 5821 5821 5821 5821 5820 5820 5820 5820 5820 5819 5819 5818 5818 5817 5817 5817 5816 5816 5815 5815 5815 5814 5814 5813 5813 5812 5812 5811
5836 5836 5836 5835 5835 5835 5834 5834 5834 5834 5834 5834 5834 5834 5834 5834 5833 5833 5832 5831 5831 5831 5831 5831 5831 5830 5830 5830 5829 5829 5829 5829 5829 5828 5828 5828 5827 5826 5826 5827 5827 5827 5827 5827 5827 5826 5826 5826 5826 5825 5825 5825 5825 5825 5825 5824 5824 5823 5823 5823 5823 5822 5822 5822 5822 5821 5821 5821 5821 5820 5820 5820 5820 5820 5820 5820 5819 5819 5819 5819 5818 5818 5818 5818 5817 5817 5816 5816 5815 5815 5815 5814 5814 5813 5813 5812 5812 5811 5811 5810 5810 5810 5809
5834 5834 5834 5833 5833 5832 5832 5832 5831 5831 5831 5831 5831 5831 5832 5831 5831 5831 5830 5830 5829 5829 5829 5829 5829 5828 5828 5827 5827 5826 5826 5826 5826 5826 5826 5825 5825 5824 5824 5824 5825 5825 5825 5825 5825 5824 5824 5824 5824 5823 5823 5823 5823 5823 5822 5822 5822 5821 5821 5820 5820 5820 5820 5820 5820 5820 5819 5819 5819 5819 5819 5818 5818 5818 5818 5817 5817 5817 5817 5816 5816 5816 5816 5815 5815 5815 5815 5814 5814 5813 5813 5812 5812 5811 5811 5810 5810 5809 5809 5808 5808 5808 5807
5832 5832 5831 5831 5831 5830 5830 5829 5829 5829 5829 5829 5829 5829 5829 5829 5829 5829 5828 5827 5827 5826 5826 5826 5826 5826 5825 5825 5825 5824 5824 5824 5824 5824 5823 5823 5823 5822 5822 5822 5822 5822 5823 5822 5822 5822 5822 5822 5821 5821 5821 5821 5820 5820 5820 5820 5820 5820 5819 5819 5818 5818 5818 5818 5818 5818 5817 5817 5817 5817 5816 5816 5816 5816 5816 5815 5815 5815 5815 5815 5814 5814 5814 5813 5813 5813 5812 5812 5812 5811 5811 5810 5810 5809 5809 5808 5808 5807 5807 5806 5806 5805 5805
5830 5829 5829 5829 5828 5828 5827 5827 5827 5827 5827 5826 5826 5826 5827 5827 5826 5826 5826 5825 5825 5824 5824 5825 5824 5824 5823 5823 5822 5822 5821 5821 5821 5821 5821 5821 5820 5820 5819 5819 5819 5820 5820 5820 5820 5819 5819 5819 5819 5819 5819 5819 5818 5818 5818 5818 5818 5817 5817 5816 5816 5816 5816 5816 5815 5815 5815 5815 5815 5815 5815 5814 5814 5814 5814 5813 5813 5813 5813 5812 5812 5812 5811 5811 5811 5810 5810 5810 5810 5809 5809 5808 5808 5807 5807 5806 5806 5805 5805 5804 5804 5803 5803
5827 5827 5826 5826 5826 5825 5825 5825 5824 5824 5824 5824 5824 5824 5824 5824 5824 5824 5823 5823 5822 5822 5822 5822 5822 5821 5821 5820 5820 5820 5819 5819 5819 5819 5818 5818 5818 5817 5817 5816 5816 5817 5817 5817 5817 5817 5817 5817 5817 5817 5816 5816 5816 5816 5816 5815 5815 5815 5815 5815 5814 5814 5814 5814 5813 5813 5813 5813 5813 5812 5812 5812 5812 5812 5811 5811 5811 5810 5810 5810 5810 5810 5809 5809 5809 5808 5808 5808 5807 5807 5807 5806 5806 5805 5805 5804 5804 5803 5803 5802 5802 5801 5801
5825 5824 5824 5824 5824 5823 5823 5822 5822 5822 5822 5821 5821 5821 5821 5821 5821 5821 5820 5820 5820 5819 5820 5820 5820 5819 5818 5818 5817 5817 5817 5816 5816 5816 5816 5815 5815 5815 5815 5814 5814 5814 5814 5814 5814 5814 5814 5814 5814 5814 5814 5814 5814 5813 5813 5813 5813 5813 5812 5812 5812 5812 5812 5811 5811 5811 5810 5810 5810 5810 5810 5810 5810 5809 5809 5809 5809 5808 5808 5808 5808 5807 5807 5807 5806 5806 5806 5805 5805 5805 5805 5804 5804 5803 5803 5802 5802 5801 5801 5800 5800 5799 5799
5822 5822 5822 5821 5821 5821 5820 5820 5820 5819 5819 5819 5819 5819 5819 5819 5818 5818 5818 5817 5817 5817 5817 5817 5817 5816 5815 5815 5815 5815 5814 5814 5814 5813 5813 5813 5813 5813 5812 5812 5811 5811 5811 5811 5811 5811 5811 5811 5811 5811 5811 5811 5811 5811 5811 5811 5810 5810 5810 5810 5810 5810 5809 5809 5809 5809 5808 5808 5808 5808 5808 5807 5807 5807 5807 5806 5806 5806 5806 5805 5805 5805 5805 5804 5804 5804 5803 5803 5803 5802 5802 5802 5801 5801 5800 5800 5800 5799 5799 5798 5798 5797 5797
5820 5820 5819 5819 5819 5818 5818 5817 5817 5817 5816 5816 5816 5816 5816 5816 5815 5815 5815 5815 5814 5814 5814 5814 5814 5814 5813 5813 5812 5812 5812 5811 5811 5810 5810 5810 5810 5810 5810 5809 5809 5808 5808 5809 5809 5809 5809 5809 5809 5809 5809 5809 5809 5809 5808 5808 5808 5808 5807 5807 5807 5807 5807 5807 5807 5806 5806 5805 5805 5805 5805 5805 5805 5805 5804 5804 5804 5804 5803 5803 5803 5802 5802 5802 5801 5801 5801 5800 5800 5800 5800 5799 5799 5799 5798 5798 5797 5797 5796 5796 5795 5795 5795
5818 5817 5817 5816 5816 5815 5815 5815 5815 5814 5814 5814 5813 5813 5813 5813 5813 5812 5812 5812 5812 5811 5811 5811 5811 5811 5810 5810 5810 5810 5809 5809 5809 5808 5808 5807 5807 5807 5807 5807 5806 5806 5805 5805 5805 5806 5806 5805 5806 5806 5806 5806 5806 5806 5806 5805 5805 5805 5805 5805 5804 5804 5804 5804 5804 5804 5804 5803 5803 5802 5802 5802 5802 5802 5802 5801 5801 5801 5801 5800 5800 5800 5800 5799 5799 5799 5798 5798 5798 5797 5797 5797 5796 5796 5795 5795 5795 5794 5794 5793 5793 5793 5792
5815 5815 5814 5814 5813 5813 5812 5812 5812 5812 5811 5811 5811 5810 5810 5810 5810 5810 5809 5809 5809 5809 5809 5809 5809 5808 5808 5807 5807 5807 5807 5806 5806 5806 5805 5805 5805 5805 5805 5805 5804 5803 5803 5803 5802 5803 5803 5803 5803 5803 5803 5803 5803 5803 5803 5803 5802 5802 5802 5802 5801 5801 5801 5801 5802 5802 5801 5801 5800 5800 5800 5800 5800 5800 5799 5799 5799 5798 5798 5798 5798 5797 5797 5797 5796 5796 5796 5795 5795 5795 5795 5794 5794 5793 5793 5793 5792 5792 5791 5791 5790 5790 5790
5812 5812 5812 5811 5811 5810 5810 5810 5809 5809 5809 5809 5808 5808 5807 5807 5807 5807 5806 5806 5806 5806 5805 5806 5806 5805 5805 5805 5804 5804 5804 5804 5803 5803 5802 5802 5802 5802 5802 5802 5801 5800 5800 5800 5800 5800 5800 5800 5800 5800 5800 5800 5800 5800 5800 5800 5800 5799 5799 5799 5799 5799 5799 5799 5799 5799 5799 5799 5798 5797 5797 5797 5797 5797 5797 5796 5796 5796 5795 5795 5795 5795 5795 5794 5794 5794 5793 5793 5792 5792 5792 5791 5791 5790 5790 5790 5789 5789 5788 5788 5788 5787 5787
5809 5809 5809 5808 5808 5807 5807 5807 5806 5806 5806 5806 5805 5805 5805 5804 5804 5804 5804 5803 5803 5803 5802 5802 5803 5802 5802 5801 5801 5801 5801 5801 5801 5800 5800 5799 5799 5799 5799 5799 5799 5798 5797 5797 5796 5796 5796 5797 5797 5797 5797 5797 5797 5797 5797 5797 5797 5796 5796 5796 5796 5796 5796 5796 5796 5796 5796 5796 5795 5795 5795 5795 5795 5794 5794 5794 5794 5793 5793 5792 5792 5792 5792 5791 5791 5791 5790 5790 5790 5790 5789 5789 5788 5788 5787 5787 5786 5786 5785 5785 5785 5784 5784
5806 5806 5805 5805 5805 5805 5804 5804 5804 5804 5804 5803 5803 5802 5802 5801 5801 5801 5801 5800 5800 5800 5800 5799 5800 5800 5799 5798 5798 5798 5798 5798 5798 5798 5797 5796 5795 5795 5795 5795 5795 5795 5794 5794 5794 5793 5793 5793 5794 5794 5794 5794 5794 5794 5794 5794 5794 5793 5793 5793 5793 5793 5793 5793 5793 5793 5793 5793 5792 5792 5792 5792 5792 5791 5791 5791 5791 5790 5790 5790 5790 5789 5789 5789 5788 5788 5788 5787 5787 5787 5786 5786 5785 5785 5785 5784 5784 5783 5783 5782 5782 5781 5781
5803 5803 5803 5802 5802 5802 5801 5801 5801 5800 5801 5801 5800 5800 5800 5799 5798 5798 5798 5798 5797 5797 5797 5797 5796 5797 5797 5796 5795 5794 5795 5794 5795 5795 5793 5792 5792 5792 5791 5791 5791 5791 5791 5791 5790 5790 5790 5790 5790 5790 5790 5790 5790 5790 5790 5790 5790 5790 5790 5790 5790 5790 5790 5789 5789 5790 5790 5789 5789 5789 5789 5789 5789 5789 5788 5788 5788 5788 5787 5787 5787 5786 5786 5786 5786 5785 5785 5785 5784 5784 5784 5783 5783 5782 5782 5781 5781 5780 5780 5779 5779 5778 5778
5801 5800 5800 5800 5800 5799 5799 5798 5798 5798 5798 5798 5798 5798 5797 5796 5795 5795 5795 5795 5795 5795 5795 5794 5794 5794 5794 5793 5792 5791 5791 5791 5791 5791 5790 5789 5788 5788 5788 5787 5787 5787 5787 5787 5786 5786 5787 5786 5786 5786 5786 5786 5786 5786 5786 5787 5787 5787 5787 5787 5786 5786 5786 5786 5786 5786 5786 5786 5786 5786 5786 5786 5786 5785 5785 5785 5785 5785 5784 5784 5784 5784 5784 5783 5783 5782 5782 5782 5781 5781 5781 5780 5780 5779 5779 5778 5778 5777 5777 5776 5776 5775 5775
5798 5798 5797 5797 5797 5796 5796 5795 5795 5795 5795 5795 5795 5795 5795 5794 5793 5792 5792 5792 5791 5791 5791 5791 5791 5790 5790 5790 5790 5789 5788 5787 5787 5787 5787 5785 5784 5784 5784 5784 5784 5783 5783 5783 5782 5781 5783 5783 5783 5783 5782 5782 5782 5782 5783 5783 5784 5784 5784 5783 5783 5783 5783 5783 5783 5783 5783 5782 5782 5782 5782 5782 5782 5782 5782 5782 5782 5782 5781 5781 5781 5780 5780 5780 5780 5780 5779 5779 5779 5778 5778 5777 5777 5776 5776 5775 5775 5775 5774 5773 5773 5772 5772
5795 5795 5795 5794 5794 5794 5793 5793 5792 5792 5792 5792 5792 5792 5792 5791 5791 5790 5789 5789 5789 5788 5788 5788 5788 5788 5787 5786 5786 5786 5785 5784 5784 5783 5783 5782 5781 5780 5779 5780 5780 5779 5778 5779 5778 5778 5779 5780 5779 5778 5778 5778 5778 5778 5779 5780 5780 5780 5780 5780 5780 5780 5780 5780 5780 5780 5779 5779 5779 5779 5779 5779 5779 5779 5779 5779 5779 5778 5778 5778 5778 5778 5777 5777 5777 5776 5776 5776 5775 5775 5775 5774 5774 5773 5773 5772 5772 5771 5771 5770 5770 5769 5769
5793 5792 5792 5791 5791 5791 5790 5790 5789 5788 5788 5788 5789 5789 5789 5788 5788 5787 5786 5786 5785 5785 5785 5785 5785 5785 5784 5783 5782 5782 5782 5781 5780 5780 5779 5778 5777 5777 5776 5775 5775 5775 5774 5775 5775 5775 5776 5776 5775 5774 5773 5775 5775 5775 5775 5776 5776 5776 5776 5777 5777 5777 5777 5777 5777 5776 5776 5775 5775 5775 5775 5775 5775 5775 5775 5775 5775 5775 5775 5775 5775 5775 5775 5775 5774 5773 5773 5773 5772 5772 5771 5771 5770 5770 5770 5770 5769 5768 5768 5767 5767 5766 5766
5790 5790 5789 5789 5788 5788 5787 5787 5786 5785 5785 5785 5785 5785 5785 5785 5784 5783 5783 5783 5782 5782 5782 5781 5781 5781 5780 5780 5779 5778 5778 5777 5777 5777 5776 5774 5773 5773 5773 5772 5771 5771 5771 5771 5772 5772 5772 5771 5771 5771 5770 5772 5772 5771 5771 5772 5772 5772 5773 5773 5773 5773 5773 5773 5773 5773 5773 5772 5772 5772 5772 5772 5772 5771 5771 5771 5771 5771 5772 5772 5772 5771 5771 5771 5771 5770 5770 5770 5769 5769 5768 5767 5767 5767 5766 5766 5766 5765 5765 5764 5764 5763 5763
5788 5787 5786 5786 5785 5785 5784 5784 5783 5782 5782 5781 5781 5781 5781 5781 5780 5780 5779 5779 5779 5778 5778 5778 5777 5777 5777 5776 5775 5774 5773 5773 5773 5773 5773 5771 5770 5769 5769 5768 5768 5768 5767 5767 5768 5768 5767 5768 5768 5768 5766 5769 5769 5768 5767 5768 5768 5769 5769 5769 5769 5770 5770 5769 5770 5769 5769 5769 5769 5768 5768 5768 5768 5768 5767 5767 5768 5768 5768 5768 5768 5768 5768 5768 5768 5767 5767 5767 5766 5765 5765 5764 5763 5763 5763 5763 5762 5762 5761 5761 5760 5760 5760
5785 5784 5784 5783 5782 5781 5781 5780 5780 5779 5779 5778 5778 5777 5777 5777 5777 5776 5775 5775 5775 5774 5774 5773 5773 5773 5773 5772 5772 5770 5769 5769 5769 5770 5769 5768 5766 5765 5765 5765 5764 5764 5764 5764 5764 5764 5763 5764 5765 5765 5764 5764 5765 5765 5765 5764 5764 5765 5765 5765 5765 5765 5765 5765 5766 5766 5765 5765 5765 5765 5765 5765 5765 5764 5764 5764 5764 5764 5764 5765 5765 5765 5764 5764 5764 5764 5764 5764 5763 5762 5761 5760 5760 5760 5760 5759 5759 5759 5758 5758 5757 5757 5756
5781 5781 5780 5780 5779 5778 5778 5777 5777 5776 5776 5775 5775 5774 5774 5774 5774 5773 5772 5771 5770 5770 5770 5769 5769 5769 5769 5769 5769 5768 5765 5765 5765 5765 5765 5764 5763 5763 5762 5761 5760 5760 5760 5760 5760 5760 5759 5759 5760 5760 5761 5760 5760 5761 5762 5761 5761 5761 5761 5761 5761 5761 5761 5761 5762 5762 5761 5761 5761 5761 5761 5761 5761 5760 5760 5760 5760 5760 5760 5760 5760 5760 5760 5760 5761 5761 5761 5760 5760 5759 5758 5757 5757 5756 5756 5756 5755 5755 5755 5754 5754 5753 5753
5778 5778 5777 5776 5776 5775 5775 5774 5774 5773 5773 5772 5771 5771 5771 5771 5770 5770 5769 5768 5767 5767 5766 5766 5765 5765 5765 5764 5764 5763 5761 5761 5761 5761 5761 5760 5760 5760 5760 5758 5756 5756 5757 5756 5756 5755 5755 5755 5755 5755 5756 5756 5756 5756 5757 5758 5758 5758 5757 5757 5757 5757 5757 5757 5758 5758 5757 5757 5757 5757 5757 5758 5757 5757 5756 5756 5756 5756 5756 5756 5756 5756 5757 5757 5757 5757 5757 5757 5757 5756 5755 5754 5753 5753 5752 5752 5752 5752 5751 5751 5750 5750 5749
5775 5775 5774 5773 5773 5772 5771 5771 5770 5770 5769 5769 5768 5768 5767 5767 5767 5767 5766 5765 5764 5763 5763 5763 5763 5761 5759 5759 5759 5757 5757 5757 5756 5757 5758 5757 5756 5756 5756 5754 5753 5752 5753 5752 5752 5752 5751 5751 5751 5751 5751 5751 5752 5752 5752 5753 5754 5754 5753 5753 5753 5753 5753 5753 5753 5754 5753 5753 5753 5753 5754 5754 5754 5753 5753 5752 5752 5752 5752 5752 5752 5752 5753 5753 5753 5754 5754 5753 5753 5753 5752 5751 5750 5749 5749 5749 5748 5748 5748 5747 5746 5746 5745